Theta_e
303 303 302 303 303 304 304 304 305 305 305 305 305 305 305 306 305 306 306 304 301 300 300 301 304 305 306 305 302 302 300 300 302 301 301 302 305 307 307 306 305 305 301 300 305 306 308 309 311 313 314 314 311 311 310 310 312 313 313 312 312 312 314 314 315 316 315 315 316 315 315 317 318 317 318 318 319 321 320 321 321 321 323 327 331 331 332 333
303 302 302 303 303 303 304 304 304 305 305 304 305 305 305 306 306 305 303 301 299 297 298 300 302 302 301 302 301 301 301 301 302 302 301 302 305 307 306 303 302 302 299 302 305 306 308 308 310 312 312 313 311 311 310 311 311 311 312 312 311 312 313 313 314 315 314 315 315 316 315 315 317 317 317 318 320 320 319 320 321 320 322 328 332 332 333 333
303 302 302 302 302 303 303 304 304 304 304 304 305 305 305 306 305 303 299 298 297 296 297 299 301 300 299 299 299 300 301 303 302 301 301 301 304 306 304 299 298 298 298 303 305 306 308 308 310 311 311 312 312 311 311 311 311 311 312 311 310 312 312 312 313 313 312 312 313 315 314 315 316 316 316 318 319 318 319 320 320 321 320 324 330 332 333 333
303 302 302 302 302 303 303 304 304 304 304 304 305 305 305 305 303 299 296 296 296 296 298 299 299 300 299 299 299 299 302 304 301 300 301 301 302 303 301 298 296 297 299 302 305 306 308 309 310 310 311 311 312 311 311 313 312 312 312 309 311 311 311 312 313 312 312 312 312 313 312 314 315 314 315 317 317 317 318 319 319 319 319 320 326 331 333 333
302 302 302 302 302 302 303 303 304 304 304 305 305 303 303 302 299 296 296 295 296 297 298 299 299 299 299 300 299 299 301 302 300 300 300 300 301 301 301 298 296 297 299 303 306 306 307 308 308 309 310 310 312 311 312 314 312 313 312 310 311 312 313 313 314 313 312 312 312 313 313 313 313 313 315 316 317 316 316 318 318 317 318 318 321 329 333 333
302 302 301 301 302 302 303 303 304 304 304 305 303 300 300 299 297 296 296 296 296 297 298 299 299 299 299 299 300 301 301 300 299 300 300 300 300 300 301 299 297 297 299 303 306 306 306 306 307 309 310 310 312 312 313 314 312 313 312 312 312 313 314 313 313 313 312 312 312 313 312 312 311 312 313 314 315 315 316 317 316 317 317 318 320 327 330 330
302 302 301 301 302 302 302 303 303 303 303 303 300 298 298 298 297 297 296 297 297 298 298 299 299 299 299 299 300 302 301 300 299 300 300 300 300 300 301 301 299 298 300 303 305 306 305 305 306 308 309 310 311 312 312 313 312 313 313 313 313 313 313 313 312 312 312 312 312 312 312 311 312 312 312 312 313 314 315 315 315 316 316 318 320 323 326 328
302 301 301 301 301 302 302 303 303 302 301 300 298 298 298 297 297 297 297 298 298 298 298 299 299 299 299 299 301 302 300 300 300 299 300 299 300 300 301 302 300 299 301 303 304 306 305 305 306 306 308 309 310 311 312 312 312 313 313 313 313 313 313 312 312 311 311 312 311 311 311 311 311 311 311 311 312 312 313 313 313 314 315 317 318 319 322 324
301 301 301 301 301 302 302 303 302 301 299 298 298 298 297 297 297 298 298 298 298 298 299 299 299 299 299 300 303 301 299 299 299 299 299 299 299 300 301 302 301 301 302 303 304 305 304 305 306 306 308 307 308 311 312 312 311 313 313 312 312 312 312 311 311 311 311 311 311 311 311 311 311 311 311 311 311 312 313 313 313 314 314 314 315 316 318 321
301 301 301 300 301 301 302 303 302 300 298 298 298 298 297 297 298 299 299 299 299 299 299 299 299 299 299 301 302 300 299 299 299 299 299 298 299 300 301 301 301 302 303 303 304 304 305 306 306 308 307 306 309 310 310 311 311 312 312 311 312 311 311 310 310 310 310 311 311 311 311 310 311 311 310 310 311 312 313 313 313 314 314 315 316 317 319 321
301 300 300 300 301 301 302 302 301 299 298 298 298 298 297 298 299 299 299 299 299 299 299 299 299 299 299 301 300 299 299 299 299 299 298 298 299 300 300 300 301 302 303 304 304 304 305 306 308 307 306 306 308 308 308 310 310 310 310 310 310 310 310 309 309 309 309 311 310 310 311 311 311 311 310 310 311 311 311 312 312 313 314 315 316 316 318 321
300 300 300 300 300 301 302 302 300 298 298 298 297 298 297 298 299 299 300 300 299 300 299 299 299 299 301 301 299 298 299 298 299 299 298 299 299 300 300 300 301 302 302 304 305 305 305 306 307 305 305 306 306 306 307 309 308 308 308 308 308 308 308 308 308 308 309 310 308 308 310 310 312 310 309 310 309 309 310 311 311 312 312 313 313 313 314 317
300 300 300 300 300 301 302 301 299 297 298 297 297 298 298 298 298 299 300 300 299 300 300 300 300 299 301 301 299 298 298 298 299 299 298 299 299 300 300 301 302 302 302 303 304 305 304 306 306 305 305 306 305 305 306 306 307 306 306 306 306 306 307 308 307 307 309 309 307 308 309 309 310 309 308 308 308 308 309 310 310 310 310 310 311 312 312 314
300 300 300 300 299 300 302 301 297 297 298 297 297 298 298 298 299 298 299 300 299 299 299 300 300 300 301 300 299 299 298 298 299 298 298 298 299 300 300 301 302 302 303 304 304 305 305 306 307 306 306 306 306 306 305 305 306 305 304 304 304 305 307 308 307 307 308 308 307 308 310 310 309 309 308 308 308 307 308 309 309 309 309 309 310 310 311 312
300 299 300 299 297 298 302 300 296 297 298 297 297 298 298 298 299 299 299 299 300 298 299 300 299 300 300 299 299 299 298 299 299 298 298 298 299 301 301 301 301 302 303 303 305 306 305 307 308 306 306 306 306 306 305 305 305 305 304 303 306 306 306 307 307 306 307 308 307 308 310 311 309 310 309 308 308 308 308 309 309 309 309 309 309 309 310 310
299 299 300 299 295 296 301 300 296 297 297 297 297 298 298 298 299 300 299 299 300 298 298 299 299 300 300 298 299 299 299 299 298 298 298 298 299 301 300 301 301 302 303 303 304 307 307 308 309 307 307 307 306 305 304 304 305 306 305 305 307 306 306 307 306 306 306 307 307 307 309 310 309 309 308 308 308 308 308 308 309 309 308 309 308 308 309 310
299 299 299 298 294 296 302 300 297 297 297 297 297 298 298 298 298 300 300 300 300 299 299 298 299 300 300 298 299 299 299 299 298 298 298 298 299 300 300 302 302 302 304 303 303 306 307 307 307 307 306 305 305 304 304 305 306 305 304 305 305 306 306 306 306 306 306 306 306 307 308 308 308 308 308 308 308 308 308 308 308 308 308 308 309 308 308 309
298 299 299 297 293 297 301 300 297 298 297 297 297 298 298 298 298 298 299 300 300 300 299 299 299 300 300 299 299 299 298 298 298 298 298 298 299 300 300 302 303 303 304 304 303 305 306 305 305 305 304 304 305 305 305 306 306 304 304 305 304 305 305 304 305 305 305 305 306 306 306 307 308 308 308 308 307 307 307 308 308 308 308 308 308 308 308 308
298 298 297 296 293 297 301 299 298 298 297 297 297 297 298 298 298 297 298 299 300 300 300 299 299 299 298 298 299 298 298 298 298 299 298 298 299 300 301 301 303 303 303 304 303 304 305 304 303 303 304 304 305 305 306 306 306 306 306 306 305 305 304 303 304 304 305 306 307 307 307 307 308 307 307 306 306 307 307 307 307 307 308 308 308 308 309 308
298 297 296 295 293 296 301 299 298 299 297 297 297 297 299 300 300 299 299 298 297 298 299 299 299 299 298 299 299 298 298 299 299 299 298 298 300 301 301 302 303 302 302 303 303 303 304 304 302 303 304 304 305 305 305 306 306 306 306 306 306 306 305 305 305 305 306 307 307 308 308 307 307 306 305 305 306 306 307 307 307 308 308 309 309 309 309 308
298 296 294 293 293 296 300 299 298 299 298 297 298 299 299 299 300 300 300 299 296 296 298 298 298 299 298 298 298 297 298 300 299 300 298 298 301 302 301 302 302 301 301 303 303 303 303 303 302 303 303 303 304 304 305 305 306 306 306 306 306 306 306 305 305 306 306 307 307 307 307 306 306 306 306 306 307 307 307 308 308 308 308 309 309 308 308 307
297 295 292 292 293 295 298 298 298 298 297 298 299 300 299 298 298 298 299 299 296 295 296 297 298 298 298 298 297 296 299 299 299 300 298 298 302 301 301 302 302 301 302 303 303 303 303 302 301 302 302 303 304 303 303 304 305 306 305 306 307 307 306 305 305 306 306 306 306 306 307 308 308 308 308 307 308 308 308 308 308 308 308 308 307 306 306 306
297 293 291 291 293 295 297 298 298 298 298 300 300 300 300 299 299 298 298 298 296 296 296 298 298 298 299 298 296 296 299 298 298 299 297 298 301 301 301 301 301 301 302 303 303 302 302 301 300 301 302 302 302 302 302 303 305 305 305 306 307 307 306 307 307 306 306 306 306 307 308 309 308 307 307 307 307 308 308 308 308 307 306 306 305 305 305 304
296 292 291 292 292 295 296 297 298 299 299 300 300 300 300 299 299 299 297 296 297 296 296 297 298 298 298 297 296 297 298 298 298 298 297 298 300 301 301 301 301 301 301 302 303 302 301 300 300 301 301 300 301 301 301 302 304 304 305 306 306 305 305 306 306 305 306 307 308 308 308 308 308 306 306 307 307 308 308 307 306 305 304 303 303 303 303 303
294 292 292 292 293 295 296 296 298 299 299 300 300 300 300 299 299 299 297 296 296 296 296 296 298 298 297 297 297 297 297 298 298 298 297 298 299 301 301 300 301 299 299 302 303 301 300 299 300 301 301 300 300 301 300 301 303 304 305 305 304 304 304 305 305 304 306 307 308 308 306 307 308 306 307 308 307 308 307 305 303 302 302 302 302 302 302 302
292 292 293 293 293 294 295 296 298 298 299 299 299 300 300 299 299 298 297 296 296 295 296 298 297 297 297 297 297 297 297 298 298 297 297 297 298 300 301 299 300 299 299 301 302 301 300 300 301 301 301 300 299 300 300 301 303 303 304 304 303 304 305 305 305 305 305 306 307 307 306 307 308 307 307 307 307 307 305 302 302 301 301 301 300 301 301 301
292 293 294 294 294 294 295 297 298 299 300 299 299 300 299 298 299 297 298 298 296 295 296 297 297 297 297 297 297 298 297 296 297 297 297 297 297 300 300 299 299 298 299 300 301 299 299 300 301 301 301 299 298 299 299 300 302 302 301 302 303 303 305 305 306 305 305 306 307 307 307 307 308 308 307 307 308 307 304 302 302 300 299 300 299 300 300 300
293 296 296 296 295 295 297 298 299 299 300 300 299 299 298 298 297 296 299 299 296 295 296 296 297 296 297 297 296 297 296 296 298 297 297 297 298 300 299 298 298 298 298 300 300 298 299 300 300 301 301 298 298 298 298 300 302 302 300 301 302 303 304 305 306 306 306 307 307 306 307 308 308 308 307 307 308 306 304 303 301 299 299 299 299 299 299 299
295 297 297 296 296 297 298 298 299 300 300 299 299 299 297 297 295 296 300 298 294 294 295 296 297 296 297 297 297 297 296 296 296 296 297 297 298 299 299 298 298 298 298 299 299 298 298 298 298 301 300 298 297 298 298 300 301 301 300 302 304 305 305 305 305 306 307 308 307 305 306 307 307 308 308 308 307 305 304 302 300 298 298 298 298 299 298 299
297 297 296 296 296 297 298 297 298 299 299 299 298 297 296 295 295 298 300 296 294 295 295 296 297 296 296 297 297 296 296 296 296 296 297 297 298 299 299 297 298 299 298 299 299 298 298 297 298 300 300 297 297 298 298 299 301 301 301 303 305 306 306 306 306 307 307 307 306 304 304 306 308 308 307 306 304 303 302 300 298 297 297 298 298 298 298 298
297 296 295 296 295 296 297 298 297 297 298 298 297 295 295 295 297 300 298 294 294 295 295 296 297 297 296 296 296 296 296 296 296 296 297 297 298 298 298 298 298 298 298 298 298 298 298 297 297 298 298 297 298 299 299 299 301 301 301 303 303 303 305 305 305 306 305 304 304 303 303 306 308 308 306 305 303 301 300 299 297 297 297 297 298 298 298 298
297 296 295 296 295 295 297 297 296 295 296 296 295 293 295 298 297 296 294 293 294 294 295 296 296 297 296 295 295 295 295 296 296 296 295 296 297 297 297 297 297 296 296 297 297 298 297 296 296 297 298 298 298 299 299 299 300 300 301 302 301 300 301 301 302 302 301 302 302 302 303 306 308 307 306 304 302 300 299 298 297 296 296 297 297 298 298 298
297 297 296 296 295 296 296 296 295 294 295 295 293 293 298 301 297 293 293 294 293 293 294 296 296 296 294 295 295 294 294 295 295 296 295 295 296 297 297 297 297 296 295 296 296 297 297 296 297 297 298 298 297 298 298 298 299 299 300 301 300 300 300 300 300 300 300 301 301 301 303 306 306 307 307 303 300 300 298 297 296 296 296 296 297 297 297 298
297 297 296 296 296 297 297 295 294 294 295 294 294 296 302 300 294 293 294 294 293 293 295 296 296 295 294 294 294 293 295 296 295 295 295 295 297 297 297 297 297 296 296 296 296 296 297 296 296 297 297 297 296 296 297 297 298 299 299 300 301 300 299 299 298 299 300 301 300 302 305 306 304 305 306 302 299 299 297 296 296 296 296 297 297 297 297 297
298 298 297 297 297 297 297 295 294 295 294 295 297 300 301 296 291 292 295 294 294 295 296 295 295 295 294 293 293 293 295 295 295 295 295 295 296 297 297 296 296 296 295 295 295 296 296 295 297 297 297 297 295 295 297 298 299 299 298 300 300 300 299 298 298 300 301 300 302 303 304 303 301 302 304 302 300 298 296 295 296 296 296 297 297 297 297 297
297 298 298 297 296 296 296 294 294 294 294 298 302 298 295 294 291 293 296 297 296 297 296 295 294 295 295 294 293 294 295 295 295 295 294 294 295 296 297 296 295 296 295 294 295 296 295 296 297 297 297 296 295 295 296 297 298 298 298 298 298 299 299 298 297 299 300 300 301 300 299 299 298 300 304 302 299 297 295 295 295 295 296 296 297 297 297 297
297 299 298 296 296 296 295 295 295 294 296 301 303 296 292 293 291 292 296 296 295 296 295 294 294 295 295 294 294 294 295 295 294 295 295 294 294 296 296 296 295 295 295 295 295 295 295 296 296 297 297 296 294 295 297 297 297 298 298 297 298 298 298 297 297 298 298 298 299 298 297 297 296 298 301 299 297 296 295 295 295 295 296 296 297 297 297 297
297 298 297 296 295 295 295 295 293 294 298 301 300 295 292 293 292 291 295 296 294 295 295 294 294 295 295 295 294 294 295 295 294 295 295 293 294 295 295 295 295 294 295 295 295 296 295 295 295 296 296 295 294 296 297 297 298 298 298 297 298 298 296 296 297 297 298 298 297 296 295 295 295 297 298 297 296 296 295 295 295 295 295 296 296 296 296 297
296 297 296 295 294 295 295 294 293 296 301 301 298 295 293 294 293 292 294 296 295 295 296 294 294 295 295 294 294 294 295 295 294 295 295 294 294 295 294 294 294 293 294 295 295 295 295 294 295 296 295 294 295 295 296 297 298 299 298 297 297 297 294 294 296 297 298 297 296 295 295 295 296 296 296 296 296 295 294 295 295 295 295 296 296 296 296 296
294 296 295 294 294 295 294 293 295 299 299 296 294 293 293 294 295 293 293 294 295 295 296 296 294 294 295 294 294 294 294 295 295 295 295 295 295 295 293 292 293 292 292 294 295 295 294 295 295 295 294 294 294 294 295 295 296 298 298 297 296 295 294 294 295 296 297 296 295 295 295 295 296 296 295 295 295 294 295 295 294 295 295 295 296 296 296 296
292 295 295 293 293 294 294 295 295 293 293 292 291 292 293 295 296 295 293 292 293 294 294 295 295 294 294 294 294 295 294 295 295 295 295 295 294 294 292 290 291 291 291 292 293 294 294 294 294 294 293 293 293 295 295 295 296 297 297 297 295 294 295 295 294 295 296 295 294 295 295 295 295 296 295 295 295 295 295 295 294 295 295 295 295 295 296 296
293 295 295 293 293 293 295 296 292 289 291 292 292 292 295 296 296 295 293 292 293 293 293 295 296 295 294 294 295 295 295 295 295 295 296 295 295 295 292 289 290 291 291 291 292 293 294 293 293 293 293 293 293 295 295 294 296 297 296 296 294 294 295 294 294 295 296 295 295 295 296 296 295 295 295 295 295 295 295 294 295 295 295 295 295 295 296 296
295 295 294 293 293 293 295 295 292 290 292 292 290 291 291 292 293 293 293 293 292 292 293 295 294 294 295 295 295 296 295 295 294 296 296 295 294 294 291 289 290 290 290 291 292 293 292 291 292 293 293 293 293 294 294 293 294 295 294 295 294 294 295 294 294 295 296 295 295 296 296 297 295 295 295 295 295 295 294 295 295 295 295 294 294 294 295 295
293 292 293 293 292 294 296 295 293 293 292 291 292 291 290 290 292 293 293 292 291 291 293 294 293 293 295 294 295 296 295 294 294 294 294 292 293 292 290 289 290 290 290 291 292 293 292 291 292 293 293 293 293 293 294 294 294 294 294 294 294 293 293 293 293 294 295 295 295 296 296 296 295 296 295 295 295 294 294 295 295 294 294 293 293 294 295 295
291 291 292 292 291 293 293 291 293 294 292 291 293 293 292 291 290 290 292 291 291 291 293 294 294 294 294 293 293 294 294 293 293 292 292 291 291 291 290 290 290 289 290 291 292 293 293 293 293 293 294 294 293 293 293 293 293 293 293 293 292 292 292 292 292 293 295 296 295 296 296 295 295 295 294 294 294 293 294 294 294 293 293 292 292 293 294 295
292 293 293 292 290 291 290 288 290 294 293 292 291 290 291 291 288 288 290 291 291 291 292 293 294 294 293 291 291 291 291 291 291 290 290 290 289 290 291 290 289 289 290 291 293 293 293 292 292 293 293 293 293 293 293 292 292 292 292 291 291 291 291 291 292 293 294 294 294 294 294 294 294 293 293 293 293 293 294 293 292 292 292 292 292 292 294 294
293 293 292 291 291 290 290 289 289 291 291 290 289 289 290 291 289 288 289 291 292 291 292 293 293 293 293 290 290 290 289 289 289 289 290 289 289 290 290 290 289 289 291 292 292 292 291 291 291 291 291 291 291 292 292 291 291 291 291 291 291 291 291 291 291 292 292 292 292 292 292 292 292 292 293 293 293 293 293 292 291 291 291 291 291 291 293 294
291 290 287 288 290 291 290 290 290 291 290 288 288 288 289 290 289 289 289 290 291 291 292 293 292 292 292 290 289 289 289 289 289 288 289 289 289 290 290 290 289 290 291 291 291 290 290 289 290 290 290 290 290 290 290 290 290 290 290 290 290 290 290 290 291 290 291 291 291 291 291 291 292 292 292 292 293 293 291 290 290 291 291 291 290 290 292 293
288 288 285 286 288 288 288 288 289 291 291 290 289 289 290 290 289 289 290 290 290 290 291 292 291 290 290 289 289 290 289 290 290 289 289 289 289 289 290 291 290 289 290 291 290 289 289 289 290 289 289 290 289 289 290 289 289 290 290 290 290 290 290 290 290 290 290 291 291 291 291 291 291 292 292 293 293 291 290 290 290 290 290 290 290 290 291 292
290 290 289 287 287 285 285 286 289 290 290 290 289 289 290 291 290 289 290 290 290 290 290 290 290 290 290 289 289 290 290 290 290 290 289 289 290 289 290 290 290 289 289 290 289 289 289 290 290 289 289 289 289 289 289 289 289 289 289 289 289 290 290 290 290 290 290 291 291 291 291 291 292 293 293 292 291 290 290 290 289 289 289 289 289 289 290 292
290 290 290 291 290 287 286 286 287 290 290 289 288 288 288 290 290 290 290 290 290 290 290 290 290 290 290 289 289 289 290 290 290 290 290 290 290 290 290 290 290 290 290 290 289 289 288 289 289 289 289 289 288 288 289 289 289 289 289 289 290 290 290 290 290 291 291 291 291 291 292 292 293 293 293 292 291 290 289 289 289 289 289 289 289 289 290 291
290 289 289 291 292 289 288 287 286 289 290 290 289 288 289 290 289 289 290 290 289 290 290 290 290 290 290 289 289 290 290 290 290 290 290 290 290 290 290 290 290 290 290 290 290 289 289 289 289 289 290 290 289 288 289 288 289 290 291 291 291 290 290 290 290 291 291 291 291 292 293 293 293 293 292 292 291 290 289 289 289 289 289 289 289 289 290 290
Wind_Speed
22 23 23 23 23 23 23 23 23 23 23 23 24 24 24 24 25 25 24 24 23 24 23 21 20 21 20 18 12 5 10 20 24 31 28 22 24 26 28 29 29 28 29 26 21 20 19 18 21 22 16 5 2 3 3 3 1 3 4 6 8 8 7 5 6 4 4 5 4 4 3 5 4 2 2 2 4 3 3 5 4 5 3 1 3 4 4 7
22 23 23 23 23 24 24 24 23 23 22 22 23 23 24 25 25 24 23 22 22 23 22 20 21 21 19 18 12 2 4 13 23 30 27 26 27 28 29 29 27 25 25 23 21 19 15 15 18 17 11 5 3 3 4 3 2 5 4 6 8 5 4 2 4 6 6 8 10 7 6 6 5 4 5 5 4 3 6 5 3 5 5 3 4 4 5 6
22 22 23 23 24 24 24 24 23 23 22 23 23 23 24 24 25 23 22 21 21 21 20 20 21 21 20 20 15 2 6 7 21 24 26 30 29 29 30 27 25 23 21 20 18 15 12 12 13 12 8 4 3 4 5 4 3 3 3 8 4 5 5 6 10 9 9 10 11 9 7 7 6 6 5 6 8 7 8 7 4 4 3 2 3 3 4 6
22 22 23 24 24 24 24 24 24 23 23 23 23 24 24 24 23 21 20 19 19 19 19 20 21 20 19 22 17 3 12 2 15 18 27 31 31 29 28 25 22 21 20 18 15 12 11 10 9 8 6 4 3 4 3 4 4 2 2 5 3 9 5 5 11 9 10 10 9 11 10 9 7 6 6 7 9 9 9 6 4 5 5 3 1 3 5 6
21 22 23 23 24 25 25 24 23 23 23 23 23 24 24 23 21 19 18 18 18 17 17 20 21 18 16 23 20 4 10 2 11 21 28 31 31 28 26 23 20 20 20 16 13 12 11 10 8 4 3 3 4 3 2 6 5 3 3 2 7 8 6 9 12 10 11 10 9 10 10 9 9 7 7 8 9 8 7 5 3 6 6 6 3 2 5 6
21 21 22 23 24 25 25 24 23 23 23 23 24 25 24 21 18 17 17 17 16 15 16 19 20 17 10 17 24 14 5 4 10 23 29 31 31 27 24 20 18 19 18 15 13 12 11 10 8 4 4 3 3 3 3 6 4 4 3 3 6 7 8 12 13 12 11 10 11 10 8 9 11 11 7 9 12 10 11 10 8 8 6 5 4 3 5 7
20 21 22 23 24 25 25 24 24 24 24 24 25 24 21 18 16 16 16 16 15 13 15 19 20 17 8 6 15 18 13 6 13 24 28 31 29 26 23 19 18 18 16 15 14 12 10 10 8 6 4 2 3 4 6 7 4 5 4 4 8 8 9 11 13 14 11 10 11 9 8 9 11 11 8 10 12 12 14 14 13 10 6 4 5 7 7 8
20 21 22 23 24 25 25 24 24 24 25 26 25 22 17 15 15 15 15 15 14 12 12 18 22 18 12 5 3 10 12 10 19 26 28 31 30 25 23 20 19 18 14 11 12 11 8 9 9 6 4 3 5 5 7 8 3 2 4 7 9 9 10 11 12 13 13 11 9 9 10 10 11 11 12 16 15 14 15 15 15 12 7 6 9 11 10 9
20 21 21 23 24 25 25 25 24 24 26 26 24 19 14 13 13 14 15 14 13 11 9 14 21 22 18 7 2 8 10 15 21 25 30 33 30 25 23 23 22 18 13 9 9 10 8 7 8 7 6 6 5 5 7 6 2 3 7 10 11 12 11 11 11 12 14 9 6 10 13 13 10 9 12 14 14 13 13 15 15 11 10 10 12 13 12 11
20 20 21 22 24 25 26 26 24 25 26 26 23 15 12 12 12 14 16 15 12 9 9 9 14 23 25 14 7 10 11 18 21 25 31 33 30 25 24 25 24 18 12 9 8 9 7 5 6 6 5 5 3 4 6 5 5 8 10 11 12 13 10 10 11 11 12 9 8 11 15 14 7 6 8 6 7 8 8 12 11 8 10 11 10 11 10 10
20 20 21 22 24 25 26 26 25 26 26 26 21 12 12 10 10 15 18 18 14 9 8 8 8 15 22 18 12 9 14 20 22 27 32 33 30 26 25 26 22 16 11 10 8 7 6 4 5 4 3 4 6 7 5 4 8 10 11 12 12 11 10 9 8 8 7 4 7 9 13 13 6 6 7 6 10 11 9 11 12 10 9 9 10 10 9 9
20 20 21 22 25 25 27 26 25 27 27 27 18 10 12 10 7 11 17 20 18 12 8 8 9 8 9 13 11 10 18 21 23 29 32 33 30 24 25 25 20 13 9 10 9 7 6 5 4 4 4 6 7 7 4 6 9 10 10 11 10 11 8 4 5 8 4 3 12 10 11 11 9 5 4 6 10 13 11 8 8 10 9 9 9 9 9 9
20 20 21 23 24 25 26 26 26 27 28 26 14 9 13 13 7 5 10 18 20 16 10 7 9 9 7 5 7 16 21 22 26 30 33 34 28 23 25 22 19 16 9 8 10 9 7 4 3 4 5 5 5 6 7 8 8 9 9 7 9 9 3 5 7 11 4 4 15 10 6 4 5 7 10 9 11 15 12 9 8 8 8 9 8 7 8 9
20 20 21 23 24 24 25 25 26 27 28 24 10 8 13 15 11 5 3 11 21 21 13 9 6 6 8 4 4 19 22 23 30 33 35 36 30 25 27 22 21 19 11 8 8 7 5 2 3 4 2 3 5 7 8 7 4 7 8 6 4 5 1 8 9 12 9 6 15 10 6 1 4 5 9 10 12 15 14 11 10 8 9 9 8 8 8 8
20 20 21 22 23 24 25 25 26 27 28 21 8 9 13 17 16 8 2 5 17 26 19 11 7 4 6 5 6 18 23 26 32 35 36 36 28 22 27 24 23 19 10 12 10 5 5 0 2 4 3 3 5 7 7 4 2 4 5 3 2 2 4 7 7 10 10 10 13 9 5 4 4 6 11 13 13 15 15 15 12 11 11 10 10 9 8 8
20 20 20 21 22 24 24 25 26 27 28 18 7 9 13 19 19 12 6 3 10 25 26 16 8 5 6 5 14 20 23 25 28 33 36 35 24 18 24 21 21 20 10 13 14 5 3 2 1 4 5 6 6 7 5 2 2 4 4 3 4 5 6 7 5 7 10 12 12 8 5 6 9 12 15 14 14 15 15 17 17 14 12 10 10 9 9 9
20 20 20 20 20 23 23 24 26 27 28 16 7 9 13 21 23 17 11 3 4 13 23 24 11 1 5 11 18 16 18 23 24 31 36 35 24 18 21 14 15 19 5 7 14 7 3 3 2 2 5 8 9 8 5 3 5 5 5 4 5 6 6 7 7 6 10 12 12 11 9 9 9 13 16 14 13 14 14 16 17 15 12 10 7 8 9 9
20 20 20 19 19 22 22 23 26 28 27 13 7 8 10 17 23 25 21 11 3 1 11 24 16 2 3 14 14 13 20 21 20 27 33 35 25 18 19 9 8 14 3 2 11 9 4 4 5 5 7 9 10 9 6 7 8 7 7 7 6 7 6 8 8 8 12 13 12 13 12 12 11 12 16 16 13 13 13 14 15 14 12 10 7 7 7 9
21 21 20 18 19 21 21 22 24 27 25 10 9 8 7 8 12 20 28 21 9 3 3 12 12 3 3 11 11 17 19 14 16 22 30 34 24 14 16 10 5 9 8 3 8 9 4 5 8 8 9 10 11 9 7 8 8 9 10 8 9 9 7 8 10 9 11 12 10 10 10 12 14 14 16 18 15 13 13 14 14 13 11 9 8 6 6 8
22 22 19 17 18 19 19 20 21 25 24 10 8 6 5 3 3 6 17 16 8 6 3 2 5 2 4 9 12 20 14 7 12 19 28 33 22 11 12 10 4 7 11 7 6 5 4 8 11 11 12 13 13 10 8 8 8 9 9 8 9 9 9 10 11 10 8 8 7 8 11 14 15 15 15 17 16 13 12 13 12 13 12 10 10 9 8 8
22 22 18 16 17 17 16 16 19 21 23 18 13 9 5 3 3 2 5 5 5 4 3 1 2 2 7 8 13 18 8 5 12 19 31 33 18 9 10 11 7 8 11 8 3 1 4 11 13 13 13 13 12 10 9 8 8 8 7 8 8 7 8 10 9 8 7 6 7 9 12 14 14 14 14 13 13 12 11 11 11 12 13 11 13 14 12 9
22 21 17 16 15 15 13 13 16 18 22 26 25 15 6 3 3 2 3 2 5 4 1 1 2 4 8 4 12 17 5 6 15 22 34 31 16 9 8 10 10 8 10 8 2 3 8 12 14 15 13 10 8 9 10 8 7 7 6 7 6 6 7 6 5 8 7 6 7 10 11 12 12 10 10 9 8 8 8 8 8 9 11 11 12 13 12 12
22 21 17 15 14 11 10 11 13 17 23 25 22 14 6 4 2 1 2 2 3 4 2 3 3 8 10 6 15 18 5 7 11 16 28 24 12 7 7 9 10 8 10 10 8 8 8 9 14 13 10 10 9 11 13 9 5 6 6 6 5 8 8 5 7 12 12 8 9 11 10 8 5 3 4 4 3 5 6 7 5 7 9 11 11 11 13 14
22 20 18 14 13 8 6 10 12 15 22 21 18 13 6 3 2 2 2 1 1 3 3 3 1 5 8 7 13 12 3 4 6 12 21 18 10 7 5 7 7 8 10 8 7 9 9 8 11 11 10 12 10 12 15 10 6 7 6 6 7 9 10 8 9 13 14 9 7 9 9 3 3 7 6 4 3 2 3 7 10 12 11 11 12 13 13 14
21 19 17 14 12 6 4 8 12 11 14 14 13 12 5 2 1 1 1 1 2 2 2 3 2 6 9 10 13 8 2 3 7 11 15 15 11 6 3 4 4 9 11 8 4 7 9 8 9 11 11 13 11 10 14 10 7 6 4 3 8 11 12 12 11 11 10 4 1 5 7 2 5 10 6 4 4 4 8 13 14 13 13 13 13 14 13 13
20 17 16 13 10 6 4 4 10 7 6 8 10 9 5 3 2 2 1 1 3 3 4 5 4 11 14 12 15 7 2 6 12 14 16 16 9 3 3 5 2 7 9 6 2 3 5 8 9 11 11 13 12 9 12 11 7 6 5 5 10 11 11 12 11 7 5 5 4 5 4 2 5 7 4 4 7 8 13 14 13 13 14 14 13 13 13 14
19 16 14 13 11 8 4 2 7 7 4 4 8 8 6 3 2 3 2 1 4 3 5 6 4 10 13 11 16 7 2 9 13 12 19 18 9 3 4 8 3 6 6 3 2 3 5 10 10 11 12 13 12 9 12 12 6 7 11 12 13 12 11 10 8 5 4 7 7 3 3 4 4 4 4 7 7 10 13 12 13 15 15 16 15 15 15 15
16 14 12 11 11 10 8 4 6 6 4 5 8 8 4 1 2 3 1 3 4 2 2 3 3 8 11 8 11 7 2 8 7 10 19 17 9 3 4 10 5 5 7 3 4 4 4 8 10 11 11 11 10 11 13 11 6 8 15 16 12 11 10 7 5 4 4 5 4 6 4 4 3 2 4 7 8 11 12 13 15 17 18 17 16 17 17 16
13 12 12 11 9 9 9 10 9 7 8 7 8 8 1 3 2 2 1 2 2 2 1 2 3 7 10 6 6 8 1 4 4 8 16 12 11 5 3 7 4 2 6 4 4 4 2 4 6 6 7 9 12 15 11 7 6 11 17 16 8 5 4 2 3 3 2 2 4 8 8 4 3 4 5 6 8 9 10 13 16 18 19 17 16 17 17 16
11 11 12 11 9 8 5 11 14 11 10 10 9 6 3 4 2 0 3 1 1 2 1 3 4 5 10 6 6 9 6 4 4 7 8 5 9 9 3 0 3 1 3 3 5 6 3 2 2 2 4 7 12 13 8 4 7 12 14 11 3 1 2 2 1 2 1 1 4 8 10 7 2 4 5 5 8 10 12 13 16 19 20 18 16 16 17 16
8 10 11 11 12 11 5 8 16 14 12 11 9 3 3 2 1 3 3 1 1 3 2 3 4 5 9 7 6 10 7 5 7 8 8 5 8 14 8 2 4 4 4 6 7 9 4 1 2 1 1 7 11 9 5 4 7 9 9 7 3 1 2 1 1 1 2 4 6 9 12 7 4 2 5 6 9 13 13 13 17 19 19 18 16 16 16 16
5 7 10 10 12 14 10 10 16 15 13 12 6 1 2 1 3 2 1 2 1 3 2 2 4 7 7 3 6 10 5 5 9 8 7 6 7 12 12 8 8 5 6 7 7 9 3 2 4 3 2 7 12 7 6 4 5 9 8 7 6 3 3 3 4 4 4 4 6 11 12 6 3 2 6 8 11 12 11 11 14 16 17 17 17 16 15 15
3 3 6 8 9 12 14 13 16 15 14 10 3 1 0 2 3 1 2 2 2 2 3 3 5 6 5 2 6 8 3 2 9 9 5 3 4 9 12 12 11 6 4 5 6 8 3 3 5 8 2 7 12 8 7 6 7 10 8 7 7 4 5 5 5 5 4 5 9 12 8 4 3 3 7 10 11 10 10 10 10 12 15 16 15 15 15 15
0 1 3 6 7 10 14 15 15 14 13 7 1 1 3 3 1 1 1 2 1 2 3 4 5 4 3 4 5 6 2 2 8 9 5 3 4 7 10 12 14 9 5 4 4 5 4 1 5 9 4 8 12 8 6 7 6 6 6 5 6 5 4 5 5 6 6 7 11 10 4 3 6 1 7 11 10 8 8 8 8 11 12 13 13 14 16 17
3 1 3 5 7 10 13 14 13 13 10 3 0 2 4 2 1 1 1 2 1 2 2 2 4 2 3 3 4 6 3 2 8 8 4 5 5 6 7 9 12 10 6 5 4 3 4 4 3 6 4 6 12 9 6 6 4 3 4 2 4 4 2 3 4 4 6 7 7 5 3 4 8 4 5 9 7 6 7 9 12 14 14 14 13 14 16 16
4 3 4 6 9 12 14 14 12 11 6 1 2 3 3 0 2 2 1 1 1 2 2 1 2 2 3 2 3 6 2 1 7 7 3 4 5 6 6 5 8 10 7 6 5 3 3 4 5 9 3 2 9 11 6 4 4 3 4 4 4 2 2 4 4 4 5 6 2 4 6 6 7 2 5 6 6 10 13 16 17 17 17 16 15 14 15 15
2 3 4 8 13 15 16 14 12 8 3 2 4 3 1 0 2 3 1 0 0 2 2 0 2 2 3 2 2 7 6 2 5 5 3 2 2 5 5 3 6 9 7 4 2 2 4 7 6 6 3 2 10 11 2 1 5 3 4 5 4 2 2 3 4 3 5 4 3 5 8 8 7 2 3 7 11 14 16 20 20 19 19 18 16 17 17 17
0 2 2 8 16 17 16 13 9 4 4 4 5 3 0 0 1 2 1 0 1 1 0 1 1 1 1 2 2 7 7 4 5 5 3 2 1 2 3 2 4 7 6 4 3 1 2 7 3 2 2 8 10 7 2 2 2 2 3 5 4 1 2 4 3 4 5 5 4 5 7 8 6 4 7 11 11 13 15 18 19 20 20 18 17 18 19 19
1 1 1 9 17 17 15 11 5 3 4 3 3 2 1 0 1 2 1 1 0 0 0 0 1 1 1 2 2 4 5 4 5 5 2 2 1 2 2 2 3 6 7 4 3 1 1 5 2 3 6 11 6 3 2 1 2 0 1 2 2 2 3 3 3 2 4 5 5 5 7 5 3 3 10 10 9 11 15 16 15 17 18 17 16 17 17 17
2 1 1 10 17 15 12 8 5 4 4 3 2 2 1 1 1 0 1 2 0 1 1 1 1 0 0 1 2 2 4 4 3 3 1 1 2 1 4 3 4 7 7 3 1 1 1 3 3 4 9 9 4 2 4 5 3 2 2 4 4 3 2 2 2 2 2 4 4 5 6 5 1 4 7 7 7 11 15 16 13 13 16 16 16 17 16 15
2 1 1 13 19 13 7 7 7 4 3 3 2 1 1 2 2 1 2 2 1 1 2 0 1 1 2 1 1 1 3 4 2 2 2 1 1 1 2 2 5 7 6 3 1 1 2 2 5 7 7 7 7 4 4 7 6 4 2 4 5 5 4 3 3 1 2 4 4 6 9 8 4 2 2 3 7 13 17 17 12 12 15 15 15 16 16 14
2 1 3 16 20 10 5 5 4 2 2 2 2 2 0 1 3 2 1 2 3 2 2 1 1 1 2 1 2 1 2 3 3 3 2 1 2 1 1 0 4 5 5 5 3 1 1 1 5 7 5 8 13 7 3 4 2 1 1 3 5 5 3 3 4 3 4 6 6 7 9 8 2 1 2 6 12 16 17 16 12 12 13 14 15 16 14 13
1 0 4 18 18 5 5 4 1 2 2 1 1 1 2 2 2 1 1 1 2 1 1 1 0 0 1 1 1 1 2 2 2 2 1 1 2 0 3 1 6 7 5 4 2 1 1 1 3 6 5 7 9 3 2 1 0 1 0 2 4 5 3 4 6 6 7 8 7 6 8 8 3 2 6 11 15 16 16 15 14 12 11 13 15 14 13 13
2 1 3 16 14 1 3 2 1 2 2 2 2 2 2 2 2 1 1 1 1 1 1 1 1 1 0 0 0 1 3 3 1 2 1 1 1 1 3 1 7 7 3 2 2 2 1 1 3 7 5 3 2 1 1 2 2 3 4 4 5 6 6 6 5 5 6 8 8 7 8 9 5 6 11 15 17 17 16 16 13 11 12 13 13 13 12 12
1 1 2 12 16 9 3 1 2 3 1 1 3 2 2 2 1 0 1 2 2 1 2 1 0 0 1 1 1 1 3 2 1 2 2 2 2 1 1 2 6 6 5 5 5 4 3 2 3 5 5 3 4 4 4 4 5 6 6 6 7 8 8 7 5 5 6 7 8 9 10 12 12 15 19 18 17 18 18 15 11 10 11 13 13 12 12 11
0 1 1 5 10 9 3 1 2 3 2 2 2 1 0 1 2 1 1 2 3 2 1 1 1 1 1 0 2 2 2 1 1 3 3 3 3 1 2 6 7 7 8 8 4 2 2 3 4 6 6 7 8 9 8 9 10 10 10 11 11 10 10 8 6 6 6 6 9 12 15 17 18 20 21 18 18 19 17 13 11 11 11 13 14 13 12 11
0 1 1 1 2 3 2 2 2 2 1 1 1 1 1 1 1 0 1 1 2 2 1 1 1 2 2 1 1 1 2 1 1 3 3 4 4 3 5 6 6 6 6 4 3 2 2 4 6 9 11 11 13 14 13 12 13 14 14 16 15 12 11 9 10 11 7 6 10 13 16 18 18 19 19 19 20 18 13 11 11 11 11 12 14 15 14 13
1 2 0 1 1 1 2 2 2 3 2 1 1 1 1 1 1 1 1 1 1 1 2 2 2 2 2 2 1 1 2 2 2 2 3 3 4 5 6 4 3 3 2 2 2 2 3 6 5 7 9 10 13 15 15 14 15 15 15 17 17 15 13 12 15 16 12 10 13 15 18 20 19 20 20 19 17 13 10 10 10 10 12 14 16 17 16 13
2 2 0 2 1 1 1 2 2 3 3 2 2 2 1 2 2 2 1 1 2 2 2 2 3 3 3 3 2 2 2 2 3 3 2 2 4 5 6 4 1 1 2 1 2 2 2 5 4 4 8 9 11 16 16 14 15 16 17 18 18 17 16 16 17 17 16 17 19 20 22 22 19 20 20 15 10 8 7 8 9 11 14 16 17 18 16 14
1 2 1 2 3 3 2 1 2 3 2 1 1 2 2 3 3 2 2 3 3 3 3 3 5 5 5 5 4 5 5 5 7 7 5 4 4 4 4 5 3 0 1 0 1 1 2 4 4 6 8 8 9 12 13 11 13 17 19 19 18 17 16 15 14 14 14 16 19 21 21 19 16 15 13 8 5 7 8 10 11 12 14 17 18 18 16 14
2 3 3 3 3 2 1 1 1 1 1 1 2 3 3 4 3 2 2 3 3 3 4 4 5 4 4 6 7 9 9 8 10 10 8 8 7 6 5 5 6 5 5 3 1 1 3 4 6 6 7 7 6 7 7 9 12 16 18 18 16 12 9 9 9 9 10 13 16 17 15 13 10 7 8 9 9 9 10 11 12 12 15 18 18 17 16 14
4 3 2 2 2 1 1 1 0 1 2 1 2 4 4 4 4 3 1 1 2 4 4 4 4 3 3 6 9 11 10 9 9 10 9 8 9 9 9 10 12 11 9 6 3 3 5 5 5 4 6 6 4 3 6 9 11 10 8 7 6 6 7 10 10 10 12 12 13 12 11 12 10 6 9 13 12 11 11 11 11 13 15 16 17 17 16 14
Wind_Direction
23 22 20 19 18 17 15 13 12 10 8 6 3 2 358 356 354 353 353 355 0 2 4 7 8 6 2 358 12 63 43 35 30 31 31 7 347 340 339 337 337 337 338 344 348 347 349 352 354 349 343 346 337 340 335 319 296 233 223 234 238 239 237 227 238 263 309 300 340 26 5 292 263 68 354 279 209 233 281 249 243 252 253 11 38 45 97 129
20 19 17 17 16 14 13 12 10 8 6 3 1 359 356 354 352 352 353 359 4 6 10 13 14 11 9 7 -0 8 65 33 29 28 17 356 349 344 341 341 340 340 344 349 348 346 344 348 349 343 344 352 354 352 330 358 330 248 227 243 238 254 287 345 350 3 4 326 331 341 354 335 309 351 350 296 250 265 287 249 210 246 228 140 85 75 120 142
18 17 15 15 13 12 11 9 7 5 4 2 359 355 354 353 351 353 357 3 6 10 15 17 17 11 16 17 352 284 171 31 30 18 357 354 350 346 344 343 343 345 351 351 344 337 327 331 337 338 337 339 11 348 324 360 332 277 259 247 243 349 338 29 24 19 13 346 330 330 336 321 316 339 326 296 285 281 277 258 227 251 250 137 107 116 149 162
16 15 13 12 10 10 9 7 6 3 2 0 357 354 353 353 352 357 2 7 10 15 20 20 20 12 22 26 5 179 182 40 31 359 346 354 353 349 347 347 347 347 351 352 349 340 325 325 333 343 332 324 5 328 332 14 340 327 288 261 355 0 329 22 15 2 356 347 326 325 319 305 323 332 291 286 283 265 259 261 257 277 307 348 62 155 179 184
14 13 11 10 8 8 7 5 4 1 0 358 355 356 356 356 357 2 4 8 13 18 25 25 23 14 25 40 37 129 189 17 9 345 347 354 354 353 348 349 349 346 351 357 359 351 346 347 341 352 342 329 347 331 27 25 343 292 282 344 22 2 327 339 350 344 340 334 321 321 315 316 326 305 276 275 268 256 271 309 323 293 310 336 334 198 194 202
12 11 9 8 6 5 5 4 1 358 358 356 357 359 360 0 2 4 4 8 14 21 31 29 26 19 23 50 53 68 104 57 338 337 350 354 356 357 351 351 348 347 354 1 5 0 3 1 353 8 354 334 347 343 351 1 345 275 268 33 13 360 334 324 330 327 329 324 314 317 316 322 311 294 290 272 261 267 287 306 312 300 308 322 311 231 215 218
10 9 8 6 3 3 3 1 359 358 359 359 2 3 2 5 5 4 5 10 14 23 35 34 29 26 25 52 56 63 72 50 341 344 352 355 358 360 357 355 347 351 2 7 8 4 3 5 11 7 338 349 1 341 337 334 310 259 273 341 342 342 328 319 320 317 317 308 302 307 302 300 292 294 305 278 269 275 283 293 294 290 289 281 270 249 243 237
8 8 7 4 2 1 0 359 358 0 2 3 4 5 6 9 8 9 13 15 16 26 39 40 36 32 39 41 31 60 55 8 348 352 354 356 1 2 2 3 354 355 4 12 11 358 354 7 14 3 340 5 346 326 339 332 302 251 298 323 327 322 320 317 314 310 307 300 295 293 285 280 280 287 291 280 279 278 276 282 281 281 278 265 266 264 260 252
8 7 5 4 1 359 358 357 359 2 3 5 6 7 13 16 20 23 22 19 18 27 39 45 43 41 46 40 348 56 29 351 352 355 357 358 1 3 4 5 360 358 358 4 11 0 0 10 8 3 340 330 330 330 339 327 334 12 324 315 315 309 315 316 308 303 299 296 284 283 282 279 273 277 279 271 273 278 273 274 275 279 280 274 270 269 269 261
7 6 4 3 359 358 357 355 359 3 4 7 6 10 22 27 37 37 33 29 21 25 37 46 47 46 48 39 37 56 6 351 1 359 359 0 1 5 5 3 -0 358 352 350 5 10 8 1 351 346 313 300 320 328 322 307 322 341 321 310 308 303 309 306 297 296 294 289 275 272 275 278 265 248 262 268 293 303 295 286 287 290 283 283 285 287 288 278
5 5 3 1 359 358 355 355 359 2 6 8 7 20 33 37 50 46 43 36 30 30 34 38 39 46 50 46 51 45 358 358 5 2 3 3 3 6 3 360 359 356 347 342 353 7 357 343 339 315 293 329 326 306 300 319 323 324 314 307 304 300 305 299 295 310 306 316 319 291 279 276 236 224 267 307 328 334 326 304 302 305 300 302 312 312 309 301
5 3 2 0 359 358 354 355 359 3 9 8 11 36 38 40 52 48 47 39 34 35 33 32 32 34 42 50 56 19 360 4 6 6 5 3 5 9 5 1 3 3 346 329 333 347 331 316 321 301 334 344 316 303 317 340 320 308 304 300 306 305 306 325 351 343 319 8 354 322 281 268 220 199 22 16 355 354 345 329 321 318 321 323 324 321 314 309
4 1 0 359 358 358 354 355 0 6 10 9 19 55 39 35 34 32 43 39 33 30 33 32 32 35 29 67 52 9 5 7 6 7 4 3 6 12 12 8 6 4 350 320 317 330 325 297 291 302 335 329 308 319 321 324 310 300 297 289 308 301 300 55 22 350 351 23 355 326 268 279 173 120 56 30 3 357 348 350 349 338 340 334 333 330 320 318
1 359 358 358 359 359 354 356 2 7 11 10 30 66 36 28 25 12 24 41 34 27 29 28 33 46 38 85 34 5 6 7 8 6 3 1 1 6 12 14 11 7 10 359 336 340 352 273 262 295 310 299 307 320 311 310 310 306 291 266 299 283 324 42 27 5 6 2 353 329 255 280 115 101 38 14 2 356 344 343 348 343 341 333 331 328 321 322
359 358 357 357 360 1 356 356 3 10 11 11 50 73 40 31 27 21 39 64 38 29 29 33 49 57 49 78 4 359 6 7 6 4 2 359 356 357 360 5 9 12 38 31 15 41 40 259 266 340 6 330 310 320 316 309 351 342 302 265 354 304 319 358 24 27 3 337 349 341 269 290 315 325 351 357 356 355 342 334 338 339 337 332 329 328 323 319
358 358 357 356 1 3 357 356 5 12 10 12 74 80 50 42 34 35 45 87 53 35 31 30 28 34 62 31 350 359 3 357 355 359 2 0 354 351 352 356 7 11 46 39 25 54 51 28 21 10 17 12 354 341 326 304 29 30 353 335 349 332 320 325 352 26 358 339 340 335 310 311 312 316 330 342 349 350 340 329 330 332 332 329 325 325 320 318
358 357 356 356 3 5 358 358 7 12 9 15 94 94 66 53 46 47 41 50 79 40 34 27 7 353 71 14 358 360 345 340 348 355 359 0 357 356 356 358 360 357 17 42 21 24 21 20 33 35 29 24 13 354 348 9 9 4 348 335 325 326 319 315 329 347 344 336 323 315 305 291 301 314 319 330 341 338 331 325 323 323 323 318 312 312 314 317
358 355 355 357 5 7 -0 2 9 12 9 18 109 114 91 66 53 51 45 50 79 0 34 24 13 144 44 3 357 335 323 330 347 353 356 359 359 1 3 360 338 343 346 72 17 10 5 22 27 32 29 19 14 8 6 9 352 334 337 332 318 321 310 306 316 324 330 326 311 308 303 296 311 319 315 320 328 328 322 318 313 312 311 309 306 301 306 314
357 355 357 360 9 9 3 7 13 12 10 28 117 119 111 76 51 47 40 45 56 31 45 12 11 100 312 332 331 327 326 330 347 354 355 357 356 357 4 354 308 359 25 35 15 9 353 32 34 24 19 7 5 7 351 341 327 318 325 322 317 317 309 311 315 315 318 315 306 306 305 307 315 317 315 315 318 319 314 311 310 310 310 311 314 309 314 323
358 356 359 3 11 12 6 12 18 16 18 43 126 107 78 30 8 37 24 33 55 40 70 351 -0 65 310 309 323 338 343 341 353 359 360 358 348 336 357 349 317 31 27 3 6 4 342 35 35 14 2 350 348 352 336 326 314 308 311 310 316 314 313 324 323 320 321 310 302 310 309 307 308 309 308 307 309 311 310 312 313 316 321 321 326 338 349 344
358 356 1 4 13 17 12 18 24 24 33 58 86 82 64 10 23 38 346 31 73 35 66 352 298 346 329 311 332 345 347 337 353 2 2 1 354 343 353 355 11 36 13 343 314 291 19 39 27 1 347 333 340 351 340 336 328 323 321 314 317 318 320 326 324 327 330 308 296 307 307 300 301 301 298 299 303 305 311 318 317 318 320 326 343 355 1 358
357 356 2 5 12 22 25 28 29 30 42 58 70 77 84 68 53 19 326 105 71 24 42 345 295 348 340 330 353 348 338 352 356 2 360 359 9 15 351 360 26 30 6 356 359 37 42 36 11 352 341 330 352 10 358 351 338 336 341 327 324 339 336 322 330 339 328 304 302 309 304 297 299 296 295 302 303 308 321 320 314 321 330 347 2 3 4 5
354 356 1 4 12 24 39 39 33 38 46 55 64 70 78 66 71 29 21 123 70 26 26 14 8 356 357 22 1 349 15 26 355 355 356 354 7 7 347 7 19 20 16 15 31 46 46 22 354 344 345 348 5 20 10 358 352 357 356 347 343 351 348 328 338 338 320 296 293 302 299 290 307 323 312 328 329 313 311 309 334 16 15 17 21 15 12 13
352 355 359 4 14 26 59 45 35 45 50 57 60 51 55 62 93 134 71 139 74 39 51 36 20 -0 360 352 349 348 21 28 348 347 353 356 351 330 349 5 358 19 24 7 27 58 49 11 343 341 355 1 3 18 15 4 1 12 16 7 347 337 332 320 330 329 314 288 261 296 303 241 64 14 353 16 17 298 331 8 36 49 39 31 31 24 17 15
351 356 -0 5 17 37 103 46 33 46 52 55 47 33 39 55 81 174 163 139 43 4 39 45 32 14 354 331 347 350 251 18 15 350 346 357 349 318 356 359 347 15 8 349 19 61 37 5 346 349 354 1 7 19 18 6 352 6 41 4 327 322 317 315 326 326 321 318 150 349 328 166 58 1 343 18 343 343 43 43 40 39 33 31 29 21 16 13
353 359 3 9 19 42 124 56 28 43 62 47 22 13 17 344 254 208 223 133 51 356 356 3 354 3 358 340 337 320 199 6 349 347 356 3 352 288 356 1 14 13 350 335 29 71 6 348 352 350 346 4 15 16 11 3 346 358 15 326 308 310 308 316 328 328 326 322 320 341 308 278 12 349 324 343 335 12 49 49 39 32 28 25 20 15 13 9
360 5 7 13 19 36 100 90 30 45 65 11 354 358 357 329 201 191 234 83 44 353 346 350 333 356 4 346 331 327 123 325 319 354 4 358 348 278 1 14 17 10 342 288 42 48 342 346 358 351 354 14 13 357 353 351 337 340 341 322 306 300 301 315 324 310 305 303 302 317 268 276 321 318 321 337 354 38 49 46 39 32 24 19 15 11 8 6
7 13 15 17 20 37 67 72 41 44 23 336 340 347 343 19 158 205 212 80 22 341 355 348 319 355 358 339 348 34 111 311 328 360 346 352 5 308 29 30 7 344 348 338 39 34 337 352 356 346 2 15 354 336 334 334 329 324 323 313 297 290 294 302 294 280 297 310 345 21 357 291 300 353 6 4 29 44 43 41 35 27 20 15 11 7 5 3
16 22 21 20 27 42 55 52 41 19 357 347 340 341 8 131 179 236 81 103 342 344 148 342 344 351 341 324 25 50 40 342 22 330 326 356 15 353 78 33 354 331 1 23 53 26 329 344 334 334 8 5 336 327 325 329 321 309 309 305 289 284 297 269 255 275 293 312 11 15 0 325 330 48 45 32 40 35 32 37 30 20 15 11 8 6 3 0
25 33 26 25 35 34 36 35 24 4 351 347 337 341 143 159 231 159 57 63 336 348 236 355 359 324 335 352 34 21 8 11 355 320 327 353 4 16 99 38 325 8 12 46 48 8 326 265 291 343 13 345 323 316 319 307 292 302 309 310 308 116 105 133 212 269 271 22 31 10 355 333 319 60 52 40 42 30 26 27 19 12 9 5 4 2 360 359
30 41 32 30 38 34 32 11 2 355 346 341 337 346 170 205 15 101 69 355 320 338 325 7 360 337 356 23 25 359 355 356 349 355 2 0 14 23 35 11 348 354 14 26 12 352 339 168 16 354 248 334 325 320 339 290 282 323 335 333 348 118 139 115 63 334 324 6 20 1 348 323 267 58 66 68 51 38 33 25 13 7 2 359 358 357 358 357
30 44 35 34 38 34 31 -0 349 351 344 338 338 319 208 262 33 81 354 325 324 352 11 354 350 356 351 14 18 354 339 351 358 7 7 6 31 35 38 29 359 357 20 13 347 343 352 156 357 341 196 348 346 346 357 326 322 358 3 358 9 32 26 16 10 360 337 330 341 349 347 317 272 53 86 79 57 49 47 32 16 7 358 354 355 354 356 356
26 48 33 30 28 23 18 358 345 346 343 341 326 243 98 83 56 59 292 334 12 350 343 312 333 352 334 345 11 348 316 2 358 0 1 351 33 51 50 33 14 16 10 350 347 355 359 169 12 7 351 356 3 5 -0 347 345 360 9 12 23 33 10 6 -0 344 324 306 319 336 338 304 324 67 106 80 59 54 49 36 18 8 360 354 353 353 355 355
261 37 12 9 7 2 359 350 344 343 342 345 253 265 52 76 73 68 293 298 323 306 313 316 317 338 24 33 3 336 336 58 6 357 356 357 27 45 41 29 23 17 345 342 12 3 337 252 23 18 349 347 6 9 340 313 312 345 -0 12 42 50 16 357 348 331 323 313 315 324 325 332 344 19 119 93 76 60 44 32 14 6 1 354 352 355 356 354
203 240 330 340 344 341 343 344 343 342 340 346 88 49 68 103 225 131 272 258 230 291 311 346 325 326 36 26 360 350 352 33 6 1 10 24 32 40 36 30 23 14 1 359 358 342 306 268 340 2 330 341 360 355 319 299 297 338 337 331 37 31 345 319 302 282 302 302 303 318 302 312 322 312 113 103 96 64 30 18 12 6 359 355 355 356 354 351
205 249 308 334 341 339 344 345 343 346 345 0 63 55 81 156 214 156 143 258 160 308 289 329 7 7 8 339 347 1 346 296 354 358 34 36 32 43 45 41 26 24 26 5 342 345 311 271 320 340 323 48 355 337 324 335 328 320 338 3 7 317 264 316 294 250 285 288 288 325 300 306 320 324 108 88 47 30 15 7 6 1 355 355 357 356 351 346
201 270 314 348 351 346 346 344 340 354 26 82 69 75 106 283 182 172 177 281 152 328 297 352 28 9 355 320 337 357 348 325 354 3 19 12 28 41 39 52 38 28 22 352 332 24 322 291 301 318 302 3 345 328 284 299 322 331 12 357 333 251 223 332 319 300 316 303 299 309 301 312 319 309 61 21 17 22 12 3 358 354 354 354 352 352 348 344
142 300 329 355 351 346 345 343 341 19 78 69 74 99 194 337 170 211 252 216 177 346 29 75 30 6 348 320 327 353 348 346 1 1 359 1 58 45 19 31 40 19 357 313 293 70 319 300 296 140 327 331 334 326 223 185 341 16 14 334 328 353 339 340 335 325 326 315 304 302 301 299 280 287 345 357 11 14 6 2 354 348 351 351 348 347 345 344
55 329 330 351 350 345 344 347 357 56 79 74 95 123 171 233 245 252 276 346 138 21 40 128 8 30 29 342 315 344 356 0 354 341 344 10 3 80 59 2 351 3 356 322 301 358 284 293 304 90 348 324 312 329 335 9 45 293 292 354 27 14 332 333 331 303 301 307 305 308 308 290 237 329 335 341 6 3 356 358 352 344 346 347 346 344 343 344
52 14 319 347 350 346 346 9 40 45 60 81 130 138 124 174 196 272 344 359 0 0 7 171 187 285 303 311 287 319 349 340 332 328 327 335 315 62 67 15 342 354 349 315 249 322 282 254 268 322 340 325 306 31 354 322 317 295 334 34 22 354 329 291 274 238 272 301 310 309 296 275 276 336 324 331 355 353 350 349 344 341 343 345 345 341 340 342
58 78 337 349 350 345 355 39 47 34 74 85 110 142 151 168 140 89 22 14 39 25 1 208 205 230 191 253 288 285 324 316 301 297 289 249 292 10 67 21 345 348 339 319 297 322 311 252 273 305 334 321 306 343 342 304 290 283 323 30 12 355 350 316 299 226 254 282 293 291 284 280 293 316 307 333 341 343 345 341 337 344 344 343 342 339 337 340
67 124 343 349 350 358 44 62 37 26 95 81 100 137 86 128 121 79 38 43 55 45 357 350 56 131 185 254 323 320 306 303 278 265 253 225 272 293 113 36 337 344 339 321 309 330 341 268 274 289 290 289 295 312 352 319 294 272 345 33 7 345 342 325 319 322 303 286 280 274 274 276 267 170 302 331 338 339 337 334 339 348 345 341 339 334 333 336
39 200 350 354 351 2 75 72 30 35 59 24 60 100 17 62 115 92 77 64 47 49 7 0 36 185 208 263 336 301 280 290 279 278 281 290 302 106 134 51 355 352 338 317 309 75 74 237 279 290 273 272 287 316 67 335 57 98 356 356 340 326 329 317 303 306 299 280 273 271 268 263 235 258 307 324 330 329 328 333 343 348 343 340 335 331 330 332
35 205 341 2 5 50 119 67 125 106 34 354 15 26 8 56 113 101 99 92 64 105 113 103 244 253 211 273 299 262 289 305 321 337 335 285 332 99 151 36 359 347 322 313 334 342 322 275 313 320 320 306 302 58 132 260 286 307 305 314 309 302 315 314 292 280 274 261 257 259 264 264 267 293 302 312 319 320 324 335 345 347 342 338 332 328 328 328
54 160 278 8 29 62 99 84 131 127 108 56 47 27 9 66 99 140 138 96 89 137 148 123 152 180 134 267 271 282 316 320 314 340 346 292 298 300 189 322 343 327 286 280 288 284 282 286 301 318 330 321 302 305 312 315 312 306 304 301 292 288 293 297 286 266 257 256 252 245 257 275 291 297 299 306 315 318 325 336 348 348 341 336 330 327 326 326
60 60 280 359 31 52 74 52 91 115 138 136 100 34 325 97 109 199 206 134 114 145 168 103 142 172 147 251 284 291 319 328 286 313 319 294 290 308 313 314 317 302 285 287 294 289 277 272 256 259 266 267 274 285 305 316 304 291 289 289 287 283 278 278 274 258 255 271 266 254 261 277 288 293 297 307 315 317 325 339 346 342 338 334 330 326 323 325
163 78 31 341 26 47 61 38 48 88 115 155 136 149 155 114 98 214 219 190 112 138 159 109 141 182 179 210 271 273 271 274 286 290 281 267 265 282 296 295 295 294 289 303 359 25 310 283 258 249 252 257 270 281 291 297 288 283 288 288 284 280 273 263 249 247 262 290 273 263 270 280 286 289 295 305 311 317 330 342 339 334 332 332 329 326 323 323
37 137 210 331 355 49 65 57 73 92 88 88 127 134 138 133 135 148 195 204 136 176 185 143 142 164 156 174 215 267 278 274 259 250 259 265 277 303 307 284 273 310 334 0 16 20 315 288 252 238 255 263 273 280 284 284 280 279 280 280 280 277 267 257 251 252 259 264 261 269 280 284 287 289 294 302 309 319 333 331 326 325 325 329 330 326 322 321
57 122 84 357 40 134 84 89 128 119 109 107 104 119 163 162 154 147 176 183 164 193 216 179 169 173 161 169 207 254 248 260 270 249 231 256 279 304 312 298 289 41 66 50 17 43 302 275 250 267 286 278 270 274 276 277 278 278 274 271 273 273 267 262 262 261 259 254 256 267 274 276 279 285 292 302 310 318 320 316 320 325 326 329 328 324 319 315
121 151 135 62 82 107 91 98 146 128 106 102 116 130 173 178 167 155 193 208 185 172 192 186 173 181 189 193 219 245 239 249 272 271 259 267 279 291 291 276 261 325 26 325 347 23 252 278 306 313 301 286 267 263 266 273 282 284 283 276 271 269 269 267 264 262 259 257 260 263 267 271 276 281 290 300 298 301 311 317 322 325 327 326 323 319 314 309
101 117 140 120 98 122 140 104 143 145 134 173 157 153 182 196 183 171 199 219 224 197 179 168 167 184 200 203 224 250 258 258 263 266 263 263 269 277 279 266 257 272 284 269 241 197 224 277 307 309 302 293 265 247 269 288 285 277 276 277 272 263 254 251 249 246 249 262 273 274 273 283 291 294 299 294 289 299 311 316 317 320 324 321 318 315 309 305
111 90 116 111 93 160 171 107 244 220 150 168 169 167 186 180 165 185 199 167 226 235 203 171 171 194 214 221 235 249 259 260 258 262 265 260 262 265 263 261 261 267 276 275 257 232 242 270 297 299 297 287 250 249 312 309 294 279 266 262 267 263 266 272 274 269 263 266 277 280 283 296 304 302 290 289 295 305 308 309 311 314 316 314 312 312 306 303